Location: The Jewett Observatory
(46.7288°N, 117.1525°W)
Time: 11:27:50
(UTC-08:00)

Meteor 1-28 Rocket - Visible Passes

Search period start: 24 February 2017 00:00
Search period end: 06 March 2017 00:00
Orbit: 506 x 526 km, 97.2° (Epoch: 24 February)

Date Brightness Start Highest point End Pass type
(mag) Time Alt. Az. Time Alt. Az. Time Alt. Az.
24 Feb 4.1 04:47:53 10° SSE 04:51:29 48° ENE 04:55:07 10° N visible
24 Feb 6.4 19:25:38 10° NNW 19:27:50 15° WNW 19:30:01 10° W visible
25 Feb 4.9 04:33:28 10° SE 04:36:50 33° ENE 04:40:14 10° N visible
25 Feb 6.0 19:10:23 10° NNW 19:13:15 20° WNW 19:16:07 10° WSW visible
26 Feb 5.6 04:19:12 10° ESE 04:22:13 24° ENE 04:25:15 10° NNE visible
26 Feb 4.1 05:52:58 10° SSW 05:56:13 28° W 05:59:30 10° NW visible
26 Feb 5.4 18:55:20 10° N 18:58:39 28° WNW 19:01:57 10° SW visible
27 Feb 6.1 04:05:09 10° ESE 04:07:37 17° ENE 04:10:07 10° NNE visible
27 Feb 3.6 05:37:53 10° S 05:41:25 41° W 05:45:00 10° NNW visible
27 Feb 4.7 18:40:25 10° N 18:44:01 40° WNW 18:47:36 10° SW visible
28 Feb 6.5 03:51:27 10° E 03:53:04 12° ENE 03:54:41 10° NE visible
28 Feb 3.1 05:22:58 10° S 05:26:40 62° W 05:30:25 10° NNW visible
28 Feb 3.9 18:25:34 10° N 18:29:21 60° WNW 18:33:06 10° SSW visible
01 Mar 3.1 05:08:12 10° SSE 05:11:56 88° ENE 05:15:44 10° NNW visible
01 Mar 3.3 18:10:49 10° NNE 18:14:39 89° WNW 18:18:28 10° SSW visible
02 Mar 3.8 04:53:34 10° SSE 04:57:14 59° ENE 05:00:58 10° N visible
02 Mar 6.5 19:31:45 10° NW 19:33:32 13° WNW 19:35:19 10° W visible
03 Mar 4.6 04:39:04 10° SE 04:42:34 39° ENE 04:46:07 10° N visible
03 Mar 6.3 19:16:21 10° NNW 19:18:58 18° WNW 19:21:34 10° WSW visible
04 Mar 5.4 04:24:43 10° SE 04:27:56 28° ENE 04:31:11 10° N visible
04 Mar 5.7 19:01:14 10° NNW 19:04:23 24° WNW 19:07:31 10° WSW visible
05 Mar 6.0 04:10:33 10° ESE 04:13:19 20° ENE 04:16:08 10° NNE visible
05 Mar 3.8 05:43:46 10° SSW 05:47:12 34° W 05:50:42 10° NNW visible
05 Mar 5.1 18:46:15 10° N 18:49:45 34° WNW 18:53:14 10° SW visible
